User: anonymous   Login
Location: Napier
(39.4830°S, 176.9170°E)
Time: 22:52:47
(UTC+13:00)
Language:

Resurs 1-3 - Orbit

View from above orbital plane
View from above orbital plane
View from above satellite
View from above satellite

Ground track
Ground track

The orbit data is extracted from the following two-line orbital elements,

1 23342U 94074A   19291.74694745  .00000033  00000-0  11365-4 0  9992
2 23342  97.9673 338.3528 0001069 117.0499 243.0821 14.79401318343970
Epoch (UTC): 18 October 2019 17:55:36
Eccentricity: 0.0001069
inclination: 97.9673°
perigee height: 630 km
apogee height: 632 km
right ascension of ascending node: 338.3528°
argument of perigee: 117.0499°
revolutions per day: 14.79401318
mean anomaly at epoch: 243.0821°
orbit number at epoch: 34397

The dashed part of the orbit path shows where the satellite is in the earth's shadow,  

DLR